This is the latest recevied weather packets stored in our database for station/object DG8SBT-13. If no packets are shown the sender has not sent any weather packets the latest 10 day(s).
| Time | Temp. | Humidity | Pressure | Rain* | Wind** | Luminosity | Snow |
|---|---|---|---|---|---|---|---|
| 1777606426 | 18.89° C | 30% | 1027.2 hPa | - | - | - | - |
| 1777604635 | 19.44° C | 30% | 1027.2 hPa | - | - | - | - |
| 1777602846 | 19.44° C | 30% | 1027.1 hPa | - | - | - | - |
| 1777601058 | 20° C | 29% | 1027.1 hPa | - | - | - | - |
| 1777599268 | 20.56° C | 29% | 1027.1 hPa | - | - | - | - |
| 1777597477 | 21.11° C | 28% | 1027.2 hPa | - | - | - | - |
| 1777595688 | 21.11° C | 28% | 1027.2 hPa | - | - | - | - |
| 1777593899 | 21.67° C | 28% | 1027.3 hPa | - | - | - | - |
| 1777592108 | 21.67° C | 28% | 1027.3 hPa | - | - | - | - |
| 1777590317 | 21.67° C | 28% | 1027.1 hPa | - | - | - | - |
| 1777588528 | 21.67° C | 28% | 1027.1 hPa | - | - | - | - |
| 1777586738 | 22.22° C | 27% | 1027.1 hPa | - | - | - | - |
| 1777584949 | 22.22° C | 27% | 1027 hPa | - | - | - | - |
| 1777583160 | 22.78° C | 26% | 1027.1 hPa | - | - | - | - |
| 1777581370 | 22.78° C | 25% | 1027 hPa | - | - | - | - |
| 1777579581 | 23.33° C | 25% | 1026.9 hPa | - | - | - | - |
| 1777577790 | 23.33° C | 21% | 1026.6 hPa | - | - | - | - |
| 1777576001 | 24.44° C | 24% | 1026.3 hPa | - | - | - | - |
| 1777574211 | 24.44° C | 24% | 1026.2 hPa | - | - | - | - |
| 1777572422 | 25° C | 24% | 1025.9 hPa | - | - | - | - |
| 1777570632 | 25.56° C | 24% | 1025.8 hPa | - | - | - | - |
| 1777568841 | 25.56° C | 23% | 1025.7 hPa | - | - | - | - |
| 1777567052 | 25.56° C | 24% | 1025.9 hPa | - | - | - | - |
| 1777565261 | 25.56° C | 23% | 1025.8 hPa | - | - | - | - |
| 1777563469 | 25.56° C | 23% | 1025.6 hPa | - | - | - | - |
* Rain since midnight (hover to see other rain measurements)
** Current wind speed in m/s (hover to see current wind gust speed)